User: anonymous   Login
Location: Unspecified
(0.0000°N, 0.0000°E)
Time: 03:18:26
(UTC+00:00)
Language:

STARLINK-34922 - Orbit

View from above orbital plane
View from above orbital plane
View from above satellite
View from above satellite

Ground track
Ground track

The orbit is defined by the following mean orbital elements,

1 65273U          26145.58748073 +.00000000 +00000-0 +14376-3 0 00000
2 65273  97.4484 198.1108 0001568 105.0800 255.0601 15.05654987    02
Epoch (UTC): 25 May 2026 14:05:58
Eccentricity: 0.0001568
inclination: 97.4484°
perigee height: 548 km
apogee height: 551 km
right ascension of ascending node: 198.1108°
argument of perigee: 105.0800°
revolutions per day: 15.05654987
mean anomaly at epoch: 255.0601°

The dashed part of the orbit path shows where the satellite is in the earth's shadow,  

DLR